1st Responders/1st Detectors/Storm Spotters Weather Summary for Whitley County, KY

Forecast Maps


Reg. NEXRAD Animation


National Fire Danger: Day 1 & 2 Map

Current NWS Watch/Warnings

SPC Convective Day 1 Outlook


Day 2 Outlook

(Click images to enlarge|Page will refresh every 5 minutes)
UK Ag. Weather Center Desktop Severe Weather Service[HERE]
Whitley County, KY Hazardous Weather Outlook Webcast
(9 AM to 9 PM Mon-Fri)
[Fast]
[Dial-up]


UKAWC 1st Detectors/1st Responders Precision Weather Forecast For WHITLEY County, Kentucky
(based on the NWS County Digital Forecast)

ISSUED AT 20:00 UTC ON FRIDAY NOV 22 2019
DAY FRIDAY
EDT 3HR 5P 6P 7P
MAX/MIN -- -- 52°
TEMP 47° 47° 45°
SKY COVER 95% 94% 93%
Clouds
DEW PT 43° 43° 41°
RH 85% 86% 85%
POP 12HR -- -- --
RAIN/SNOW (liq.equ) -- -- --
SNOWFALL -- -- --
WIND SPEED(MPH) 1 1 1
WIND Gust(MPH) 8 9 9
WIND DIR NE NE NE
DEW -- -- --
HeatIndex 47 47 45
Rain Slight Chance Slight Chance --
Rain Showers -- -- --
Thunder Storm -- -- --
Fog -- -- --
WIND CHILL -- -- --
SPRAY COND
DRY COND
LIVESTOCK COLDSTRESS



DAY SATURDAY SUNDAY MONDAY TUESDAY WEDNESDAY THURSDAY
EDT 6HR 8P 9P 10P 11P MIDN 1A 2A 3A 4A 5A 6A 7A 8A 9A 10A 11A NOON 1P 2P 3P 4P 5P 6P 7P 8P 9P 10P 11P MIDN 1A 2A 3A 4A 5A 8A 11A 2P 5P 8P 2A 8A 2P 8P 2A 8A 2P 8P 2A 8A 2P 8P 2A 8A 2P 8P
MAX/MIN -- -- -- -- -- -- -- -- -- -- -- -- 41° -- -- -- -- -- -- -- -- -- -- 58° -- -- -- -- -- -- -- -- -- -- 34° -- -- 49° -- -- 29° 58° -- -- 36° 61° -- -- 40° 54° -- -- 34° 52° --
TEMP 45° 45° 45° 45° 43° 43° 41° 41° 43° 43° 43° 45° 47° 47° 50° 52° 54° 56° 56° 58° 58° 58° 54° 50° 47° 47° 45° 45° 43° 41° 40° 38° 38° 36° 34° 40° 47° 49° 41° 32° 31° 54° 47° 38° 38° 58° 54° 47° 40° 50° 45° 38° 36° 49° 43°
SKY COVER 91% 90% 90% 92% 91% 91% 92% 93% 93% 96% 98% 100% 100% 100% 100% 100% 100% 100% 100% 100% 100% 100% 100% 100% 100% 100% 100% 100% 95% 94% 93% 92% 90% 89% 69% 57% 46% 35% 30% 30% 31% 15% 21% 18% 42% 45% 70% 65% 68% 42% 45% 52% 55% 66% 81%
Clouds
DEW PT 40° 40° 41° 41° 41° 40° 40° 40° 41° 43° 43° 45° 45° 47° 49° 49° 50° 52° 52° 52° 50° 49° 49° 47° 45° 43° 41° 40° 40° 38° 36° 36° 34° 34° 32° 34° 31° 31° 34° 32° 31° 36° 38° 38° 38° 40° 43° 45° 38° 34° 36° 34° 34° 32° 38°
RH 85% 85% 89% 88% 92% 92% 95% 96% 96% 99% 100% 99% 96% 96% 96% 92% 89% 85% 83% 80% 74% 74% 79% 86% 88% 89% 85% 85% 88% 85% 85% 88% 89% 88% 91% 76% 51% 48% 72% 100% 99% 50% 70% 96% 99% 50% 66% 88% 95% 54% 67% 85% 92% 51% 82%
POP 12HR 100% -- -- -- -- -- -- -- -- -- -- -- 77% -- -- -- -- -- -- -- -- -- -- -- 100% -- -- -- -- -- -- -- -- -- 57% -- -- -- 4% -- 1% -- 3% -- 9% -- 27% -- 46% -- 38% -- 19% -- 32%
RAIN/SNOW (liq.equ) 0.01in -- -- -- -- -- 0.00in -- -- -- -- -- 0.13in -- -- -- -- -- 0.42in -- -- -- -- -- 0.13in -- -- -- -- -- 0.01in -- -- -- 0.00in -- 0.00in -- 0.00in 0.00in 0.00in -- -- -- -- -- -- -- -- -- -- -- -- -- --
SNOWFALL 0in -- -- -- -- -- 0in -- -- -- -- -- 0in -- -- -- -- -- 0in -- -- -- -- -- 0in -- -- -- -- -- 0in -- -- -- 0in -- 0in -- 0in 0in 0in -- -- -- -- -- -- -- -- -- -- -- -- -- --
WIND SPEED(MPH) 1 2 2 5 6 6 6 5 2 1 1 1 1 2 5 6 6 7 7 7 7 8 8 9 9 9 10 10 10 9 9 9 8 7 7 7 7 6 5 5 5 7 6 5 5 9 9 13 9 7 5 5 5 5 5
WIND DIR NE NE NE NE NE NE NE E E E E SE SE SE SE SE SE S S S W W W W W W W W W NW NW NW W W W W W W W SW S SW SW S S S S S S W W N E E NE
HeatIndex 45 43 43 42 40 39 38 39 41 43 43 45 47 47 50 52 54 56 56 58 58 58 54 50 47 47 45 39 36 36 34 32 31 30 29 36 47 49 39 28 27 54 47 35 34 58 54 47 33 50 45 35 32 49 41
Rain Slight Chance Slight Chance Slight Chance Slight Chance Slight Chance Slight Chance Chance Chance Chance Likely Likely Definite Definite Definite Definite Definite Definite Definite Definite Definite Definite Definite Likely Likely Likely Chance Chance Chance Chance Slight Chance Slight Chance -- -- -- -- -- -- -- -- -- -- -- -- -- -- -- -- -- -- -- -- -- -- -- --
Rain Showers -- -- -- -- -- -- -- -- -- -- -- -- -- -- -- -- -- -- -- -- -- -- -- -- -- -- -- -- -- -- -- -- -- -- -- -- -- -- -- -- -- -- -- -- -- Slight Chance Chance Chance Chance Slight Chance -- -- Slight Chance Chance Chance
Thunder Storm -- -- -- -- -- -- -- -- -- -- -- -- -- -- -- Slight Chance Slight Chance Slight Chance Slight Chance -- -- -- -- -- -- -- -- -- -- -- -- -- -- -- -- -- -- -- -- -- -- -- -- -- -- -- -- -- -- -- -- -- -- -- --
Fog -- -- -- -- -- -- -- -- -- -- -- -- -- -- -- Slight Chance Slight Chance -- -- -- -- -- -- -- -- -- -- -- -- -- -- -- -- -- -- -- -- -- -- -- -- -- -- -- -- -- -- -- -- -- -- -- -- -- --
WIND CHILL -- -- -- 43° 39° 39° 37° 38° -- -- -- -- -- -- -- -- -- -- -- -- -- -- -- -- -- -- 40° 40° 37° 35° 34° 32° 32° 30° 28° 35° -- -- 38° 28° 26° -- -- 35° 35° -- -- -- 34° -- 43° 35° 32° -- 40°
SPRAY COND
DRY COND
LIVESTOCK COLDSTRESS

Click on individual weather variable above in left-hand column (ie., TEMP, RH, QPF 12HR) to view state forecast maps






NWS 48 Hr. Forecast Maps,

Regional Hourly Observations For WHITLEY County, Kentucky
Issued at 400 PM EST FRI NOV 22 2019
SOUTHEAST KENTUCKY
  
CITY           SKY/WX    TMP DP  RH WIND       PRES   REMARKS
JACKSON        CLOUDY    44  44 100 CALM      30.05F                  
LONDON         CLOUDY    47  44  90 N5        30.05F                  
SOMERSET       CLOUDY    45  41  87 N8        30.09R                  
MIDDLESBORO    CLOUDY    51  51 100 N6        30.04S                  
MONTICELLO     CLOUDY    48  46  93 N16       30.08R                  


Current NOWCAST not available:
Nowcasts are not issued routinely during fair weather. Only when
precipitation or other significant weather is occuring in this county will these
forecasts be issued. Currently, there is no short term forecast in effect.


Fire Weather Forecast For WHITLEY County, KY
Provided by the National Weather Service:

Issued at: Fri Nov 22 16:38:25 EST 2019

438 PM EST Fri Nov 22 2019

                      Tonight      Sat          Sat Night    Sun          

Cloud Cover           Mcldy        Cloudy       Cloudy       Pcldy        
Chance precip (%)     50           100          50           0            
Precip type           showers      tstms        showers      None         
Temp (24H TREND)      38-48 (+1)   54-59 (+8)   32-38        46-51        
Rh % (24H TREND)      93-100 (+2)  77-84 (+22)  89-100       45-52        
20ftwnd-AM(mph)                    SE 3-7 G22                W 3-7 G16    
20ftwnd-PM(mph)       NE 2-6 G14   SW 6-10 G25  W 6-10 G21   W 3-7 G17    
Precip duration       1            6            1                         
Precip begin                       Continuing                             
Precip end                         Continuing                             
Precip amount         0.04         0.48         0.03         0.00         
LAL                   1            2            1            1            
Haines Index (MID)                 3                         2            
Mixing hgt(ft-AGL)                 700                       2000         
Transport wnd (mph)                SW 12                     SW  9        
Vent rate (kt-ft)                  8152                      15417        
ADI Early             4 Very Poor  5 Very Poor  22 Fair      25 Fair      
ADI Late              5 Very Poor  10 Poor      25 Fair      22 Fair      
Max LVORI Early       7            8            5            4            
Max LVORI Late        7            6            5            3            

REMARKS...RANGES OF MIN T EXCEEDING 8 DEGREES & RANGES OF MAX RH        
EXCEEDING 10% INDICATE THE LIKELIHOOD OF THERMAL BELTS. ADI IS        
ATMOSPHERIC DISPERSION INDEX BY LAVDAS. DISPERSION INDEX IS        
MAGNITUDE OF VENT RATE DIVIDED BY 1000.


SPC's Fire Weather Web Tool (Excellent!), SPC's Fire Weather Outlooks, NWS Fire Weather WEB, Fire Danger Class Map,
Keetch-Byram Drought Index, ROMAN Web, Haines Index ,
WFAS's 10-hr Dead Fuel Moist., WFAS's 100-hr Dead Fuel Moist., Probablity of Ignition, Visual blackness Map, Palmer Drought Index, HPC's Rainfall Forecast Maps


Hazardous Weather Outlook For WHITLEY County, Kentucky
336 PM EST Fri Nov 22 2019

 DAY ONE  Tonight.

No hazardous weather is expected at this time.

 DAYS TWO THROUGH SEVEN  Saturday through Thursday.

Isolated thunderstorms are possible Saturday afternoon for areas
mainly along and south of the Hal Rogers Parkway.

 SPOTTER INFORMATION STATEMENT  

Spotter activation is not anticipated.

Latest WHITLEY County, Kentucky Watches, Warnings and Advisories.
Additional Drought Info.: UKAWC Drought Page, Kentucky Drought Watch


7-Day Forecast For WHITLEY County, KY

TONIGHT
Cloudy. A slight chance of showers in the evening, then showers likely late. Patchy valley fog near dawn. Lows in the mid 40s. Light winds. Chance of rain 60 percent.

SATURDAY
Patchy valley fog early. Showers through the day. A slight chance of thunderstorms. Highs around 60. Light winds becoming southwest around 10 mph in the afternoon. Chance of rain near 100 percent.

SATURDAY NIGHT
Cloudy. A chance of rain showers in the evening, then a slight chance of rain showers near dawn. Lows in the mid 30s. West winds around 10 mph. Chance of rain 50 percent.

SUNDAY
Mostly sunny. Highs around 50. Light winds.

SUNDAY NIGHT
Partly cloudy. Lows in the lower 30s. Light winds.

MONDAY
Mostly sunny. Highs in the upper 50s.

MONDAY NIGHT
Mostly clear. Lows in the upper 30s.

TUESDAY
Partly sunny with a 30 percent chance of rain showers. Highs in the lower 60s.

TUESDAY NIGHT
Mostly cloudy with a 50 percent chance of showers. Lows in the mid 40s.

WEDNESDAY
Partly sunny with a 40 percent chance of showers. Highs in the upper 50s.

WEDNESDAY NIGHT
Mostly cloudy. Lows in the upper 30s.

THANKSGIVING DAY
Partly sunny. Highs in the mid 50s.

THURSDAY NIGHT
Mostly cloudy with a 30 percent chance of rain showers. Lows in the upper 30s.

FRIDAY
Mostly cloudy with a 40 percent chance of rain showers. Highs in the mid 50s.

Ag Weather Center, Department of Biosystems & Agricultural Engineering, University of Kentucky